Total_Precipitation_Accumulation
0.60 0.70 1.23 1.83 1.89 1.07 0.64 0.46 0.27 0.26 0.27 0.15 0.07 0.06 0.17 0.42 0.65 0.90 0.67 0.55 0.38 0.35 0.32 0.46 0.60 0.62 0.59 0.56 0.53 0.55 0.50 0.41 0.40 0.41 0.39 0.34 0.30 0.29 0.26 0.26 0.22 0.19 0.18 0.19 0.25 0.31 0.29 0.29 0.39
0.50 0.95 1.59 2.18 1.62 0.81 0.63 0.42 0.36 0.28 0.18 0.10 0.06 0.05 0.10 0.12 0.12 0.31 0.60 0.65 0.42 0.35 0.38 0.49 0.68 0.72 0.69 0.65 0.63 0.75 0.69 0.57 0.51 0.48 0.45 0.37 0.32 0.34 0.39 0.39 0.30 0.24 0.24 0.22 0.25 0.32 0.29 0.31 0.39
0.69 1.37 1.94 1.92 1.08 0.71 0.64 0.50 0.40 0.26 0.14 0.10 0.08 0.06 0.10 0.16 0.23 0.46 0.66 0.58 0.46 0.38 0.41 0.65 0.80 0.73 0.71 0.72 0.85 1.01 0.92 0.82 0.70 0.59 0.51 0.46 0.43 0.44 0.50 0.43 0.39 0.35 0.31 0.29 0.33 0.36 0.32 0.32 0.33
0.92 1.65 1.93 1.54 0.93 0.62 0.55 0.48 0.37 0.27 0.13 0.05 0.07 0.11 0.08 0.12 0.27 0.47 0.55 0.47 0.42 0.41 0.43 0.59 0.73 0.73 0.76 0.81 0.92 1.00 1.03 1.05 0.85 0.69 0.63 0.61 0.59 0.57 0.59 0.57 0.49 0.46 0.41 0.39 0.40 0.37 0.37 0.37 0.36
1.22 1.68 1.68 1.43 1.02 0.69 0.58 0.46 0.36 0.29 0.17 0.07 0.07 0.17 0.14 0.17 0.28 0.45 0.54 0.45 0.39 0.39 0.40 0.46 0.63 0.65 0.70 0.80 0.89 0.92 1.00 1.09 0.94 0.72 0.72 0.74 0.67 0.67 0.69 0.70 0.59 0.53 0.50 0.48 0.48 0.43 0.39 0.38 0.38
1.37 1.54 1.58 1.46 1.12 0.78 0.70 0.47 0.33 0.27 0.18 0.13 0.13 0.20 0.19 0.24 0.39 0.57 0.61 0.68 0.61 0.52 0.47 0.48 0.59 0.64 0.68 0.77 0.89 0.84 0.90 1.02 0.96 0.86 0.80 0.74 0.72 0.75 0.76 0.72 0.66 0.59 0.57 0.55 0.55 0.52 0.44 0.40 0.39
1.24 1.31 1.34 1.01 0.90 0.93 0.73 0.40 0.33 0.30 0.28 0.24 0.16 0.24 0.25 0.27 0.35 0.51 0.60 0.71 0.86 0.90 0.77 0.60 0.52 0.54 0.61 0.73 0.85 0.89 0.90 0.94 0.92 0.98 0.93 0.89 0.85 0.79 0.74 0.71 0.68 0.64 0.63 0.61 0.59 0.53 0.48 0.44 0.39
0.91 0.92 0.92 0.89 0.90 0.91 0.58 0.30 0.20 0.20 0.20 0.19 0.22 0.30 0.30 0.28 0.33 0.43 0.63 0.85 0.91 0.96 0.91 0.79 0.70 0.67 0.67 0.65 0.81 1.02 1.10 1.07 0.98 0.97 0.96 0.95 0.89 0.79 0.74 0.66 0.65 0.66 0.66 0.69 0.68 0.59 0.53 0.46 0.41
0.75 0.86 0.98 1.11 1.04 0.77 0.41 0.27 0.18 0.15 0.13 0.14 0.16 0.19 0.20 0.24 0.34 0.45 0.56 0.65 0.75 0.77 0.79 0.81 0.84 0.87 0.93 0.93 0.92 1.14 1.22 1.15 0.96 0.87 0.90 0.91 0.77 0.80 0.80 0.68 0.77 0.74 0.76 0.78 0.77 0.70 0.62 0.51 0.41
0.83 0.92 0.92 0.79 0.61 0.44 0.32 0.27 0.21 0.22 0.20 0.16 0.18 0.19 0.18 0.23 0.34 0.42 0.49 0.53 0.56 0.63 0.64 0.65 0.69 0.77 0.89 0.97 1.30 1.50 1.30 1.19 0.92 0.91 0.81 0.87 0.94 1.02 0.84 0.77 0.91 0.92 0.94 0.89 0.86 0.85 0.73 0.56 0.41
0.69 0.78 0.59 0.50 0.43 0.29 0.23 0.23 0.21 0.21 0.22 0.17 0.18 0.19 0.20 0.25 0.33 0.39 0.42 0.43 0.47 0.49 0.48 0.48 0.47 0.49 0.58 0.78 1.12 1.41 1.52 1.48 1.40 1.16 0.93 0.94 0.82 0.72 0.67 0.69 0.78 0.85 0.91 0.85 0.85 0.81 0.66 0.56 0.50
0.62 0.47 0.34 0.35 0.28 0.24 0.22 0.17 0.17 0.15 0.16 0.14 0.16 0.18 0.21 0.25 0.29 0.32 0.38 0.41 0.45 0.47 0.48 0.45 0.44 0.41 0.43 0.52 0.69 0.89 1.03 1.12 1.14 0.99 0.88 0.95 0.84 0.74 0.75 0.75 0.75 0.74 0.81 0.89 0.90 0.82 0.69 0.57 0.49
0.57 0.46 0.27 0.20 0.20 0.19 0.17 0.16 0.14 0.13 0.15 0.14 0.18 0.26 0.32 0.35 0.34 0.35 0.39 0.42 0.46 0.52 0.59 0.56 0.47 0.44 0.43 0.47 0.54 0.62 0.77 0.86 0.89 0.91 0.86 0.90 0.90 0.87 0.84 0.77 0.76 0.70 0.76 0.85 0.89 0.81 0.72 0.66 0.58
0.43 0.39 0.31 0.23 0.20 0.17 0.16 0.16 0.14 0.13 0.16 0.18 0.23 0.31 0.39 0.46 0.46 0.47 0.48 0.49 0.49 0.53 0.60 0.65 0.57 0.52 0.48 0.46 0.49 0.54 0.64 0.72 0.76 0.75 0.75 0.85 0.94 0.93 0.89 0.84 0.85 0.82 0.82 0.93 0.91 0.79 0.78 0.75 0.65
0.34 0.33 0.30 0.25 0.26 0.27 0.23 0.21 0.16 0.15 0.18 0.22 0.26 0.31 0.38 0.46 0.51 0.54 0.53 0.51 0.51 0.53 0.56 0.59 0.60 0.60 0.59 0.57 0.56 0.56 0.63 0.73 0.75 0.72 0.67 0.69 0.78 0.83 0.86 0.86 0.86 0.90 0.98 1.02 1.04 0.85 0.80 0.72 0.62
0.40 0.44 0.50 0.37 0.38 0.37 0.34 0.28 0.17 0.18 0.20 0.22 0.25 0.28 0.33 0.37 0.42 0.48 0.50 0.47 0.47 0.46 0.47 0.52 0.54 0.59 0.65 0.68 0.69 0.71 0.71 0.78 0.75 0.74 0.68 0.63 0.68 0.76 0.89 0.90 0.86 0.89 1.01 1.08 1.11 0.99 0.89 0.77 0.69
0.45 0.44 0.43 0.39 0.32 0.30 0.28 0.23 0.20 0.21 0.20 0.21 0.23 0.22 0.23 0.26 0.31 0.36 0.39 0.41 0.42 0.41 0.41 0.44 0.48 0.51 0.62 0.70 0.73 0.82 0.84 0.86 0.83 0.82 0.74 0.71 0.76 0.83 1.00 1.10 1.10 1.09 1.09 1.07 1.02 1.04 0.98 0.87 0.81
0.42 0.29 0.25 0.24 0.18 0.17 0.16 0.16 0.17 0.17 0.16 0.16 0.16 0.17 0.18 0.18 0.22 0.27 0.28 0.29 0.30 0.32 0.34 0.38 0.43 0.45 0.53 0.68 0.80 0.96 1.07 1.04 1.06 1.00 0.89 0.91 1.05 1.18 1.32 1.31 1.38 1.43 1.29 1.22 1.15 1.15 1.08 0.96 0.92
0.25 0.18 0.15 0.17 0.16 0.14 0.13 0.14 0.15 0.14 0.13 0.13 0.12 0.12 0.13 0.12 0.13 0.15 0.19 0.22 0.22 0.22 0.25 0.31 0.34 0.42 0.50 0.58 0.73 0.95 1.22 1.33 1.43 1.39 1.21 1.16 1.28 1.52 1.72 1.67 1.71 1.71 1.55 1.48 1.55 1.71 1.64 1.34 1.10
0.25 0.20 0.15 0.15 0.10 0.09 0.09 0.10 0.10 0.11 0.13 0.13 0.11 0.11 0.10 0.09 0.08 0.07 0.10 0.13 0.15 0.15 0.17 0.22 0.30 0.39 0.48 0.57 0.75 0.91 1.06 1.07 1.24 1.40 1.38 1.30 1.29 1.43 1.56 1.81 1.88 1.78 1.77 1.88 1.92 2.18 2.26 1.84 1.45
0.21 0.18 0.17 0.18 0.12 0.07 0.08 0.09 0.08 0.10 0.12 0.12 0.12 0.11 0.10 0.08 0.07 0.06 0.06 0.08 0.09 0.10 0.12 0.15 0.22 0.32 0.45 0.61 0.85 1.07 1.26 1.34 1.41 1.34 1.43 1.44 1.37 1.40 1.49 1.65 1.79 1.78 1.84 1.89 1.99 2.30 2.68 2.41 1.95
0.16 0.12 0.11 0.14 0.19 0.18 0.17 0.20 0.14 0.15 0.19 0.19 0.19 0.16 0.14 0.12 0.09 0.07 0.06 0.07 0.07 0.08 0.09 0.12 0.20 0.35 0.56 0.78 1.04 1.30 1.50 1.54 1.43 1.48 1.51 1.39 1.33 1.29 1.36 1.50 1.62 1.72 1.74 1.84 1.91 2.02 2.44 2.71 2.41
0.14 0.10 0.07 0.10 0.14 0.12 0.11 0.17 0.16 0.22 0.30 0.32 0.30 0.26 0.20 0.16 0.14 0.12 0.11 0.12 0.13 0.14 0.16 0.23 0.43 0.68 0.93 1.14 1.41 1.70 1.70 1.59 1.50 1.50 1.47 1.42 1.43 1.39 1.38 1.51 1.57 1.58 1.63 1.72 2.00 2.23 2.47 2.61 2.53
0.11 0.08 0.07 0.09 0.12 0.08 0.06 0.13 0.24 0.29 0.33 0.37 0.36 0.30 0.23 0.19 0.22 0.27 0.31 0.37 0.41 0.44 0.58 0.79 1.05 1.24 1.33 1.46 1.61 1.73 1.71 1.72 1.67 1.49 1.39 1.39 1.43 1.49 1.53 1.58 1.57 1.53 1.56 1.64 1.83 2.08 2.29 2.55 2.69
0.06 0.08 0.13 0.15 0.16 0.13 0.12 0.27 0.38 0.34 0.29 0.29 0.30 0.25 0.20 0.24 0.33 0.45 0.61 0.74 0.84 0.96 1.08 1.22 1.42 1.56 1.50 1.47 1.52 1.56 1.57 1.57 1.56 1.50 1.40 1.35 1.35 1.37 1.41 1.52 1.62 1.69 1.71 1.79 1.94 2.04 1.96 2.16 2.50
0.04 0.08 0.22 0.28 0.24 0.24 0.27 0.47 0.52 0.41 0.31 0.22 0.17 0.16 0.24 0.38 0.52 0.63 0.72 0.83 1.00 1.14 1.19 1.19 1.30 1.40 1.36 1.33 1.31 1.28 1.34 1.37 1.34 1.26 1.25 1.28 1.35 1.33 1.27 1.31 1.42 1.55 1.69 1.72 1.77 1.75 1.68 1.81 2.01
0.05 0.07 0.15 0.28 0.24 0.23 0.36 0.61 0.57 0.37 0.31 0.25 0.22 0.25 0.38 0.58 0.79 0.94 1.04 1.17 1.21 1.25 1.30 1.22 1.21 1.25 1.25 1.17 1.09 1.09 1.15 1.20 1.23 1.18 1.19 1.17 1.16 1.08 1.01 1.02 1.05 1.12 1.19 1.26 1.41 1.50 1.57 1.60 1.71
0.09 0.16 0.25 0.43 0.47 0.46 0.54 0.65 0.58 0.46 0.43 0.45 0.52 0.61 0.67 0.78 1.03 1.32 1.57 1.74 1.57 1.30 1.18 1.13 1.06 1.06 1.14 1.11 1.04 1.01 1.10 1.11 1.10 1.13 1.10 1.10 1.09 1.00 0.93 0.89 0.85 0.81 0.77 0.81 0.99 1.18 1.29 1.39 1.53
0.15 0.26 0.34 0.46 0.56 0.71 0.88 0.98 0.83 0.86 0.88 0.95 1.06 1.10 1.10 1.21 1.19 1.34 1.53 1.70 1.60 1.28 1.05 1.05 1.06 1.01 0.99 0.99 1.01 1.00 0.99 0.90 0.89 0.94 0.95 0.94 0.95 0.98 0.96 0.88 0.82 0.89 0.87 0.82 0.87 0.94 0.99 1.07 1.20
0.27 0.38 0.52 0.69 0.64 0.69 0.89 1.06 0.95 0.94 0.96 1.05 1.23 1.30 1.29 1.20 1.10 1.09 1.13 1.20 1.21 1.06 0.87 0.83 0.96 1.01 0.95 0.92 0.95 0.94 0.85 0.81 0.77 0.76 0.73 0.66 0.64 0.67 0.75 0.83 0.78 0.77 0.79 0.80 0.85 0.88 0.91 0.94 1.01